Probability
0 0 0 0 0 0 0 1 2 6 12 20 27 31 35 37 35 35 33 31 33 37 36 32 28 28 29 28 26 25 22 20 22 23 22 23 22 18 13 10 12 14 14 13
0 0 0 0 0 0 0 1 5 9 14 22 29 32 34 35 34 33 31 29 31 33 33 31 30 31 31 28 26 25 24 23 24 24 25 27 26 21 14 11 13 15 15 15
0 0 0 0 1 2 2 4 8 13 18 26 32 32 32 33 32 30 29 28 28 28 28 28 28 30 31 28 26 27 27 27 28 29 29 31 32 28 21 17 15 15 15 15
0 0 0 1 2 5 6 8 12 16 22 31 35 33 33 32 30 28 26 25 24 24 25 25 24 26 30 30 29 30 31 32 33 34 33 36 38 36 30 25 21 17 15 14
0 0 0 2 5 8 10 14 17 19 25 32 35 35 32 30 29 27 25 23 22 22 22 22 23 26 30 32 34 35 35 36 36 36 36 38 41 39 34 30 26 22 18 16
0 0 1 4 9 12 13 17 20 23 27 31 33 32 29 28 29 29 28 26 25 23 23 24 26 29 31 33 36 37 37 37 36 35 34 37 38 37 34 31 28 25 22 21
0 0 2 7 12 14 14 17 21 25 28 29 29 28 29 30 32 32 32 32 31 29 27 27 29 31 32 33 34 35 35 34 33 32 31 32 34 33 33 30 27 25 23 22
1 1 3 6 9 11 12 14 20 24 26 27 26 27 30 32 32 32 32 33 32 31 29 28 29 30 30 30 31 30 30 28 28 29 29 30 29 29 29 28 27 26 23 21
4 4 4 5 7 9 10 12 16 21 23 24 26 27 28 28 28 29 30 30 29 28 27 26 27 28 28 27 26 25 24 23 23 25 27 27 26 26 26 26 26 25 24 22
7 6 6 6 8 10 11 11 13 18 21 23 25 25 24 22 22 23 24 25 26 24 24 24 25 26 25 23 21 21 20 19 20 22 25 25 23 21 22 23 23 22 22 21
7 7 7 7 8 10 10 9 10 13 18 21 22 22 20 18 17 17 18 20 21 21 21 21 22 21 21 19 18 19 19 19 19 21 23 22 19 17 16 17 17 17 16 16
5 5 5 6 7 8 7 5 5 8 11 15 18 19 18 16 14 13 14 16 17 19 19 19 18 16 16 16 16 17 17 18 19 20 20 19 16 14 12 11 10 9 9 8
4 4 4 5 7 7 4 2 3 4 5 8 12 14 15 14 12 12 12 13 14 15 15 14 13 12 12 13 14 15 16 17 18 18 17 16 15 14 12 9 7 5 4 3
4 3 3 4 5 5 2 1 3 4 4 6 8 10 12 13 11 10 11 11 11 11 10 9 9 9 10 12 13 14 14 15 16 16 15 14 13 14 14 12 9 6 4 2
3 3 2 3 3 3 3 2 3 4 5 5 6 8 10 10 9 9 10 10 9 8 7 7 9 10 10 11 12 13 13 13 13 14 13 12 11 12 13 12 11 9 6 4
3 3 3 3 3 3 3 4 4 4 5 5 4 4 5 6 7 7 8 7 7 6 6 8 10 11 10 10 12 13 13 12 11 12 11 9 9 10 10 10 10 10 8 6
2 3 3 3 3 3 3 4 4 5 5 4 2 1 2 3 4 5 5 4 4 5 5 7 9 9 9 9 11 13 13 11 10 9 9 9 9 8 7 7 8 8 8 6
1 1 2 3 3 3 3 3 3 3 3 3 2 1 1 2 3 3 3 3 3 4 5 6 7 7 7 8 10 13 13 11 8 8 9 9 7 6 5 5 6 7 6 5
0 0 1 2 2 2 2 1 1 1 1 1 2 2 1 1 2 3 3 3 3 3 4 5 5 6 7 7 9 12 12 10 8 8 9 8 5 4 3 4 5 5 5 4
0 0 0 1 1 1 1 0 0 0 0 0 2 3 3 2 2 2 3 3 3 4 5 5 4 5 6 6 8 10 11 8 7 8 8 7 4 3 3 3 4 4 4 3
0 0 0 0 0 0 0 0 0 0 0 1 2 3 3 3 2 1 2 2 2 4 5 4 4 4 5 5 6 8 9 7 6 7 6 5 3 2 1 1 2 2 2 1
0 0 0 0 0 0 0 0 0 0 0 1 2 2 2 2 1 0 1 1 1 3 3 3 2 3 3 3 4 5 6 6 5 5 4 3 1 1 0 0 1 1 0 0
0 0 0 0 0 0 0 0 0 0 0 0 1 1 0 0 0 0 0 1 1 1 2 1 1 1 1 1 2 3 4 4 4 4 3 1 0 0 0 0 0 0 0 0
0 0 0 0 1 0 0 0 0 0 0 0 0 0 0 0 0 0 1 1 0 0 0 0 0 0 0 0 1 2 3 3 3 3 2 1 0 0 0 0 0 0 0 0
0 0 0 0 0 0 0 0 0 0 0 0 0 0 0 0 0 0 0 0 0 0 0 0 0 0 0 0 0 1 2 3 3 2 1 0 0 0 0 0 0 0 0 0
0 0 0 0 0 0 0 0 0 0 0 0 0 0 0 0 0 0 0 0 0 0 0 0 0 0 0 0 0 0 1 2 2 1 0 0 0 0 0 0 0 0 0 0
0 0 0 0 0 0 0 0 0 0 0 0 0 0 0 0 0 0 0 0 0 0 0 0 0 0 0 0 0 0 0 1 1 0 0 0 0 0 0 0 0 0 0 0
Wind_Speed
3 3 1 2 3 1 2 6 7 6 6 7 7 8 8 9 9 8 7 6 6 5 4 4 3 3 4 4 4 5 5 5 6 5 4 4 4 4 4 4 4 4 4 4
4 3 4 4 4 2 0 3 6 7 3 4 6 7 8 9 10 8 7 6 6 5 4 3 3 3 3 3 4 5 5 5 4 4 4 5 4 4 4 4 4 4 4 4
2 4 4 4 4 1 2 0 6 6 5 6 8 8 8 8 8 8 7 6 5 5 4 4 4 5 5 4 3 4 4 4 5 5 5 5 6 5 6 5 4 4 4 4
1 4 1 6 3 4 6 5 3 5 6 7 9 8 7 7 8 6 5 5 4 4 3 3 3 3 3 2 3 4 4 4 5 5 5 4 5 6 6 5 5 5 4 4
3 1 2 5 4 2 4 5 5 5 6 6 6 8 5 3 5 6 5 4 4 3 3 3 3 3 3 2 3 3 3 4 4 5 6 6 7 6 5 5 5 5 4 5
3 3 3 4 7 3 7 4 6 4 5 5 4 5 1 2 4 5 4 3 3 2 2 2 2 2 3 2 3 4 4 4 4 5 5 6 6 6 5 5 5 4 4 4
3 2 3 5 8 5 5 3 3 4 4 3 3 4 4 3 4 4 3 2 3 3 2 2 2 3 3 3 4 4 4 3 4 4 5 5 4 4 4 4 4 4 4 3
3 2 4 7 5 4 3 1 3 4 4 4 4 4 4 4 4 4 3 2 3 2 1 0 1 2 2 3 3 2 2 3 4 4 3 3 4 4 4 4 4 4 4 3
4 4 3 1 3 2 4 4 4 5 4 4 4 4 3 3 2 2 2 1 2 2 2 2 1 0 1 3 2 1 2 3 3 2 2 2 3 4 4 4 4 3 3 3
3 1 2 4 4 4 5 5 4 5 5 5 3 3 3 2 2 2 1 1 1 2 1 2 2 2 1 2 1 2 2 3 3 2 2 2 2 3 4 4 4 3 3 3
2 1 3 4 3 3 5 5 5 5 5 5 4 3 2 2 1 1 1 1 1 1 0 1 1 2 2 2 1 1 2 2 3 3 3 2 1 1 3 3 5 5 4 4
3 3 2 2 0 3 4 4 3 4 4 3 2 0 1 1 1 1 1 1 1 0 1 2 2 2 3 2 1 1 1 2 2 2 3 3 3 1 3 1 2 4 5 5
3 1 1 0 3 3 3 2 2 2 2 2 1 1 2 1 1 1 1 0 1 1 2 2 2 2 2 2 1 1 1 2 2 2 3 3 3 3 2 1 2 2 4 4
2 3 2 1 1 1 1 1 2 3 3 2 1 1 1 1 1 1 1 1 1 1 1 2 2 3 3 2 1 1 1 1 2 2 3 3 3 3 3 3 2 0 0 2
1 2 1 1 1 1 1 2 2 2 2 2 1 1 1 1 0 1 1 1 1 1 2 2 2 3 3 2 1 1 1 1 1 1 2 3 3 3 3 3 3 2 1 0
0 1 1 2 2 2 2 1 1 1 1 1 1 0 1 1 0 1 1 1 1 1 2 2 3 3 3 2 1 1 1 0 1 1 2 2 2 2 2 2 2 2 2 1
1 1 0 1 2 1 0 0 1 1 1 1 1 1 0 0 1 2 2 2 1 2 2 2 3 3 2 2 1 1 0 1 1 1 1 2 2 2 2 2 2 2 2 2
2 2 2 2 1 0 1 1 1 1 1 1 1 1 1 1 1 2 2 1 1 2 3 3 3 3 2 2 1 1 1 1 1 2 2 2 2 2 2 2 2 2 1 1
1 1 1 1 1 1 1 0 1 1 0 0 1 1 1 1 1 1 1 1 1 2 4 4 4 2 2 2 1 1 1 1 1 1 1 2 2 2 2 2 2 2 2 2
2 2 2 2 1 0 1 1 1 0 0 0 1 1 1 1 1 0 1 1 2 2 3 3 2 2 2 1 1 0 1 1 1 2 2 2 2 2 2 3 3 2 2 3
2 2 2 2 1 0 0 1 1 0 1 1 0 0 1 1 1 0 0 1 3 2 2 2 1 1 1 1 1 0 1 1 2 2 2 2 2 2 2 2 2 2 2 2
1 1 1 1 1 1 1 1 1 1 0 1 1 1 0 0 1 1 1 2 2 2 1 1 1 1 2 1 1 1 1 2 2 2 2 2 2 3 2 2 2 2 2 2
1 1 1 1 1 1 1 0 1 1 1 1 1 1 1 2 1 1 2 2 1 0 1 1 2 3 3 1 1 2 2 2 2 2 2 2 2 2 2 2 2 2 2 2
1 1 1 1 1 2 0 1 1 1 1 1 1 1 1 1 1 2 2 1 0 1 1 1 2 3 3 2 2 2 2 2 2 2 2 2 2 2 2 2 2 2 2 3
1 1 1 1 1 1 1 1 0 1 1 1 1 1 1 2 2 2 1 1 1 1 1 1 2 3 2 2 2 2 1 1 2 2 3 2 2 2 2 2 2 2 2 2
1 1 1 1 1 2 1 1 1 1 1 0 1 1 0 0 1 1 0 1 1 1 1 0 1 1 1 1 1 1 1 1 2 2 2 2 2 2 2 2 3 2 2 3
1 1 1 1 1 0 1 1 1 1 1 1 1 0 0 1 1 1 1 1 1 1 1 1 1 1 1 1 1 1 1 2 1 1 2 1 1 2 2 2 2 2 2 2
Wind_Direction
206 230 249 305 309 349 152 177 174 191 177 189 173 155 146 132 126 119 119 124 130 133 136 136 146 160 177 191 189 185 185 195 203 208 204 184 179 176 180 187 193 190 174 170
2 8 32 2 338 353 267 158 147 134 167 187 151 124 121 133 134 133 137 142 142 138 139 150 157 162 170 195 192 186 191 199 199 199 197 183 181 171 173 186 187 181 176 177
317 327 37 348 312 27 25 5 147 162 188 150 125 129 141 137 133 141 149 149 150 158 167 173 176 171 174 185 179 190 200 203 201 196 193 189 185 179 187 191 187 182 185 180
66 37 199 246 285 87 77 34 64 122 131 139 139 139 129 127 134 139 146 151 162 167 168 185 184 162 157 161 173 188 198 199 197 198 199 196 189 192 196 191 189 190 190 185
107 129 270 303 338 15 92 28 19 102 107 107 110 88 68 91 125 136 138 144 160 178 176 180 180 173 158 177 183 184 203 207 201 196 197 199 202 202 195 188 193 194 187 180
124 143 215 268 310 323 88 37 350 69 100 119 99 101 196 142 112 105 97 107 130 146 138 167 204 177 162 186 192 205 213 214 206 202 204 203 204 202 195 185 190 185 180 178
140 167 261 286 315 28 90 218 323 64 85 105 123 163 175 136 107 98 89 97 113 112 124 189 186 164 178 201 220 224 215 207 206 208 206 202 198 198 188 182 179 181 178 180
131 146 256 313 22 80 171 186 62 67 80 89 99 101 110 114 110 102 88 79 95 96 64 344 151 155 188 228 238 230 208 211 218 216 211 197 183 182 177 176 179 183 179 184
157 188 236 13 88 117 124 93 73 69 61 79 90 93 99 100 100 99 98 89 92 99 51 12 2 126 209 249 249 218 206 222 227 223 212 185 173 179 179 171 183 188 186 189
71 28 50 55 63 68 80 84 78 78 74 75 93 97 90 87 71 63 47 53 85 93 61 5 345 348 294 254 222 190 209 220 209 194 191 191 179 176 178 181 183 187 191 192
73 334 38 33 38 69 75 69 61 58 72 78 79 88 107 115 111 91 23 7 84 115 139 281 306 321 314 287 211 198 235 224 207 190 176 164 153 167 182 192 190 183 193 188
201 228 176 238 343 70 70 55 53 60 55 60 74 122 100 112 148 132 110 64 53 7 290 293 307 315 316 310 260 196 244 236 208 190 169 160 153 98 37 120 146 167 182 182
166 183 144 110 45 63 78 38 23 71 91 79 41 86 97 102 62 52 79 106 226 255 278 295 312 319 316 312 315 264 244 228 192 177 170 168 167 165 155 47 81 120 151 163
101 84 47 22 12 48 63 36 60 82 84 98 76 67 83 72 62 39 334 281 260 265 284 286 296 303 304 307 303 287 234 210 197 189 180 174 177 179 170 167 168 151 120 165
48 106 177 280 334 18 35 57 72 77 87 74 62 66 74 66 51 284 280 292 326 304 290 293 299 301 308 319 324 304 248 197 189 190 167 162 164 163 164 162 166 163 117 84
104 58 65 26 352 358 38 57 83 126 112 93 104 183 199 181 244 278 296 307 303 280 280 279 274 282 305 319 322 309 262 209 175 165 161 161 158 163 172 168 169 168 175 193
134 235 257 295 302 322 354 211 230 211 154 159 202 217 233 334 342 335 327 318 295 267 273 267 267 284 298 294 281 270 234 180 154 143 150 168 170 172 168 164 174 180 193 197
173 196 190 194 214 267 341 20 29 26 168 207 204 199 227 234 266 286 297 323 353 344 327 307 297 300 294 284 266 239 200 191 184 175 167 165 166 156 143 147 158 159 143 119
88 75 69 80 129 145 165 286 310 321 280 267 252 245 247 240 227 262 330 356 348 316 307 314 316 316 313 302 304 228 193 186 175 163 151 147 144 137 139 146 149 146 145 131
69 64 59 53 43 127 206 253 289 337 312 354 4 353 346 316 282 311 357 305 274 267 279 306 331 345 332 327 353 122 135 140 135 133 126 127 132 133 137 142 142 138 138 142
92 73 45 35 22 28 185 191 168 255 306 14 55 242 238 262 244 228 175 290 298 301 307 323 338 331 331 345 355 69 104 109 115 126 126 125 122 121 123 122 124 128 130 136
145 131 97 95 82 326 291 214 189 213 269 306 292 237 197 281 322 335 280 243 262 295 322 328 318 340 6 17 59 79 90 101 110 118 120 124 126 127 126 123 120 116 113 116
177 175 180 190 197 210 258 286 222 211 209 244 266 244 227 230 213 190 272 271 243 293 339 335 346 4 20 48 67 82 86 94 106 113 121 130 133 136 134 126 126 126 124 125
220 220 211 199 138 117 89 300 273 228 212 231 250 236 197 206 285 261 221 209 137 56 31 6 18 24 36 43 51 61 75 97 111 112 111 108 116 123 128 132 135 137 137 137
178 166 146 116 117 172 201 221 292 260 242 259 280 272 225 189 196 234 217 181 149 103 54 18 28 42 53 54 57 56 68 102 117 117 111 111 119 129 134 139 147 150 148 148
140 149 167 158 167 173 173 154 170 233 196 220 283 283 257 186 147 125 117 136 129 115 107 70 64 65 65 69 70 71 87 99 90 97 116 123 125 135 147 154 153 155 157 159
89 89 84 44 12 176 151 135 153 197 182 161 179 259 108 103 102 102 104 106 106 96 86 75 79 90 82 77 76 78 85 91 97 106 113 120 136 154 162 158 157 158 155 152